Robstown, TX

4:59 AM CDT on July 25, 2017 (GMT -0500)
Robstown

Weather History for KRBO - October, 2012

Change the Weather History Date:

Tuesday, October 30, 2012

  Actual Average (KCRP) Record (KCRP)
Temperature  
Mean Temperature 67 °F -  
Max Temperature 84 °F 78 °F 91 °F (2004)
Min Temperature 51 °F 60 °F 41 °F (1993)
Cooling Degree Days 2    
Growing Degree Days 17 (Base 50)    
Moisture  
Dew Point 52 °F    
Average Humidity 56    
Maximum Humidity 74    
Minimum Humidity 33    
Precipitation  
Precipitation 0.00 in - - ()
Sea Level Pressure  
Sea Level Pressure 30.04 in    
Wind  
Wind Speed 5 mph (SE)    
Max Wind Speed 17 mph    
Max Gust Speed 17 mph    
Visibility 10 miles    
Events      
Averages and records for this station are not official NWS values.
T = Trace of Precipitation, MM = Missing Value Source: NWS Daily Summary

Daily Weather History Graph

Daily Weather History Graph

Search for Another Location

Airport or City:

Trip Planner

Search our weather history database for the weather conditions in past years. The results will help you decide how hot, cold, wet, or windy it might be!

Date:

Astronomy

Oct. 30, 2012 Rise Set
Actual Time 7:40 AM CDT 6:47 PM CDT
Civil Twilight 7:16 AM CDT 7:11 PM CDT
Nautical Twilight 6:48 AM CDT 7:39 PM CDT
Astronomical Twilight 6:21 AM CDT 8:06 PM CDT
Moon 7:25 PM CDT (10/30) 8:22 AM CDT (10/30)
Length of Visible Light 11h 55m
Length of Day
11h 07m
Full, 99% of the Moon is Illuminated
Oct 30
Full
Nov 6
Last Quarter
Nov 13
New
Nov 20
First Quarter
Nov 28
Full

Hourly Weather History & Observations

Time (CDT) Temp. Heat Index Dew Point Humidity Pressure Visibility Wind Dir Wind Speed Gust Speed Precip Events Conditions
12:15 AM 56.7 °F - 41.7 °F 57% 30.14 in 10.0 mi East 3.5 mph - N/A   Clear
12:55 AM 57.7 °F - 43.3 °F 59% 30.13 in 10.0 mi East 4.6 mph - N/A   Clear
1:35 AM 57.6 °F - 44.4 °F 62% 30.12 in 10.0 mi ESE 4.6 mph - N/A   Clear
1:55 AM 56.7 °F - 43.7 °F 62% 30.12 in 10.0 mi East 4.6 mph - N/A   Clear
2:15 AM 59.2 °F - 46.4 °F 63% 30.12 in 10.0 mi East 3.5 mph - N/A   Clear
2:35 AM 59.2 °F - 46.6 °F 63% 30.11 in 10.0 mi East 3.5 mph - N/A   Clear
3:15 AM 58.1 °F - 46.8 °F 66% 30.10 in 10.0 mi Calm Calm - N/A   Clear
3:35 AM 57.6 °F - 46.9 °F 68% 30.10 in 10.0 mi East 3.5 mph - N/A   Clear
3:55 AM 58.3 °F - 47.7 °F 68% 30.09 in 10.0 mi Calm Calm - N/A   Clear
4:15 AM 56.3 °F - 46.8 °F 70% 30.09 in 10.0 mi Calm Calm - N/A   Clear
4:35 AM 55.4 °F - 45.3 °F 69% 30.08 in 10.0 mi Calm Calm - N/A   Clear
4:55 AM 54.9 °F - 45.5 °F 71% 30.07 in 10.0 mi Calm Calm - N/A   Clear
5:15 AM 54.1 °F - 45.0 °F 71% 30.07 in 10.0 mi Calm Calm - N/A   Clear
5:35 AM 52.3 °F - 42.8 °F 70% 30.07 in 10.0 mi Calm Calm - N/A   Clear
5:55 AM 52.2 °F - 43.0 °F 71% 30.07 in 10.0 mi Calm Calm - N/A   Clear
6:15 AM 51.8 °F - 41.9 °F 69% 30.07 in 10.0 mi Calm Calm - N/A   Clear
6:55 AM 52.2 °F - 43.7 °F 73% 30.08 in 10.0 mi Calm Calm - N/A   Clear
7:15 AM 51.8 °F - 42.6 °F 71% 30.08 in 10.0 mi Calm Calm - N/A   Clear
7:55 AM 52.0 °F - 42.3 °F 69% 30.09 in 10.0 mi Calm Calm - N/A   Clear
8:15 AM 53.2 °F - 43.5 °F 70% 30.09 in 10.0 mi Calm Calm - N/A   Clear
8:35 AM 56.8 °F - 46.6 °F 69% 30.10 in 10.0 mi Calm Calm - N/A   Clear
8:55 AM 61.0 °F - 48.6 °F 64% 30.10 in 10.0 mi Calm Calm - N/A   Clear
9:15 AM 65.1 °F - 53.6 °F 66% 30.10 in 10.0 mi Calm Calm - N/A   Clear
9:35 AM 67.5 °F - 54.9 °F 64% 30.10 in 10.0 mi Calm Calm - N/A   Clear
9:55 AM 70.7 °F - 55.6 °F 59% 30.10 in 10.0 mi SSW 3.5 mph - N/A   Clear
10:15 AM 72.9 °F - 55.9 °F 55% 30.10 in 10.0 mi South 5.8 mph - N/A   Clear
10:35 AM 75.0 °F - 56.3 °F 52% 30.10 in 10.0 mi SSE 6.9 mph - N/A   Clear
10:55 AM 75.9 °F - 56.3 °F 50% 30.10 in 10.0 mi SSE 10.4 mph - N/A   Clear
11:15 AM 77.4 °F - 53.6 °F 44% 30.10 in 10.0 mi SSE 6.9 mph - N/A   Clear
11:35 AM 77.7 °F - 54.1 °F 44% 30.09 in 10.0 mi SSE 9.2 mph - N/A   Clear
11:55 AM 78.6 °F - 54.1 °F 43% 30.08 in 10.0 mi SSE 9.2 mph 16.1 mph N/A   Clear
12:35 PM 79.9 °F - 53.4 °F 40% 30.06 in 10.0 mi South 10.4 mph - N/A   Clear
12:55 PM 80.8 °F - 52.7 °F 38% 30.05 in 10.0 mi South 3.5 mph - N/A   Clear
1:15 PM 81.5 °F - 52.2 °F 36% 30.04 in 10.0 mi SSE 10.4 mph 16.1 mph N/A   Clear
1:35 PM 82.2 °F - 50.5 °F 33% 30.03 in 10.0 mi SSE 6.9 mph - N/A   Clear
1:55 PM 82.4 °F - 51.1 °F 34% 30.02 in 10.0 mi SSW 5.8 mph - N/A   Clear
2:15 PM 82.4 °F - 52.2 °F 35% 30.01 in 10.0 mi South 9.2 mph - N/A   Clear
2:35 PM 83.3 °F - 52.9 °F 35% 30.00 in 10.0 mi South 10.4 mph 16.1 mph N/A   Scattered Clouds
2:55 PM 83.3 °F 82.0 °F 53.2 °F 35% 29.99 in 10.0 mi SE 4.6 mph - N/A   Scattered Clouds
3:15 PM 82.9 °F 81.8 °F 53.1 °F 36% 29.99 in 10.0 mi South 5.8 mph 17.3 mph N/A   Clear
3:35 PM 82.6 °F 81.5 °F 53.2 °F 36% 29.98 in 10.0 mi SE 6.9 mph - N/A   Clear
3:55 PM 83.1 °F 81.8 °F 53.1 °F 35% 29.97 in 10.0 mi SE 9.2 mph - N/A   Clear
4:15 PM 83.1 °F 82.1 °F 54.0 °F 37% 29.97 in 10.0 mi SE 4.6 mph - N/A   Clear
4:35 PM 83.1 °F 82.2 °F 55.4 °F 38% 29.97 in 10.0 mi SSE 15.0 mph - N/A   Clear
4:55 PM 82.4 °F 81.8 °F 56.1 °F 40% 29.96 in 10.0 mi SE 13.8 mph - N/A   Clear
5:15 PM 81.5 °F 81.3 °F 56.5 °F 42% 29.96 in 10.0 mi SE 17.3 mph - N/A   Clear
5:35 PM 80.2 °F 80.5 °F 57.2 °F 45% 29.96 in 10.0 mi SE 15.0 mph - N/A   Clear
5:55 PM 79.2 °F - 57.2 °F 47% 29.97 in 10.0 mi SE 17.3 mph - N/A   Clear
6:15 PM 78.1 °F - 57.4 °F 49% 29.97 in 10.0 mi SE 15.0 mph - N/A   Clear
6:35 PM 77.0 °F - 57.2 °F 50% 29.98 in 10.0 mi SE 16.1 mph - N/A   Clear
6:55 PM 75.9 °F - 57.2 °F 52% 29.98 in 10.0 mi SE 15.0 mph - N/A   Clear
7:15 PM 75.2 °F - 57.7 °F 54% 29.99 in 10.0 mi SE 15.0 mph - N/A   Clear
7:35 PM 74.5 °F - 58.5 °F 57% 29.99 in 10.0 mi SE 11.5 mph - N/A   Clear
7:55 PM 73.6 °F - 58.5 °F 59% 29.99 in 10.0 mi SE 10.4 mph - N/A   Clear
8:15 PM 72.9 °F - 58.3 °F 60% 29.99 in 10.0 mi SE 9.2 mph - N/A   Clear
8:35 PM 72.0 °F - 58.1 °F 62% 29.99 in 10.0 mi SE 8.1 mph - N/A   Clear
8:55 PM 71.4 °F - 58.3 °F 63% 30.00 in 10.0 mi SE 8.1 mph - N/A   Clear
9:15 PM 70.7 °F - 58.1 °F 64% 30.00 in 10.0 mi SE 6.9 mph - N/A   Clear
9:35 PM 70.2 °F - 58.5 °F 66% 30.01 in 10.0 mi SE 6.9 mph - N/A   Clear
9:55 PM 69.8 °F - 58.3 °F 67% 30.02 in 10.0 mi SE 6.9 mph - N/A   Clear
10:15 PM 68.5 °F - 58.1 °F 69% 30.02 in 10.0 mi SE 5.8 mph - N/A   Clear
10:35 PM 68.0 °F - 57.6 °F 69% 30.02 in 10.0 mi ESE 5.8 mph - N/A   Clear
11:15 PM 67.3 °F - 58.1 °F 72% 30.02 in 10.0 mi ESE 6.9 mph - N/A   Clear
11:35 PM 67.1 °F - 58.1 °F 73% 30.01 in 10.0 mi ESE 5.8 mph - N/A   Clear
11:55 PM 67.1 °F - 58.5 °F 74% 30.01 in 10.0 mi ESE 5.8 mph - N/A   Clear